| time (UTC) | temp F | wind direction | speed MPH | gust MPH | rain 1hr in | rain 24hr in | rain mn in | humidity % | barometer mb |
| 20260901063042 | 68 | 88 | 0.0 | 5.0 | 0.00 | 0.00 | 0.00 | 62 | 1009.1 |
| 20260901061539 | 68 | 298 | 1.0 | 3.0 | 0.00 | 0.00 | 0.00 | 61 | 1008.7 |
| 20260901060036 | 69 | 61 | 0.0 | 2.0 | 0.00 | 0.00 | 0.00 | 60 | 1008.7 |
| 20260901054536 | 69 | 55 | 3.0 | 4.0 | 0.00 | 0.00 | 0.00 | 59 | 1008.6 |
| 20260901053036 | 70 | 68 | 3.0 | 7.0 | 0.00 | 0.00 | 0.00 | 59 | 1008.8 |
| 20260901051542 | 70 | 72 | 0.0 | 3.0 | 0.00 | 0.00 | 0.00 | 58 | 1008.7 |
| 20260901050035 | 70 | 64 | 3.0 | 5.0 | 0.00 | 0.00 | 0.00 | 59 | 1008.7 |
| 20260901044551 | 70 | 172 | 0.0 | 4.0 | 0.00 | 0.00 | 0.00 | 58 | 1009.0 |
| 20260901043034 | 70 | 172 | 0.0 | 2.0 | 0.00 | 0.00 | 0.00 | 58 | 1009.0 |
| 20260901041533 | 71 | 115 | 3.0 | 5.0 | 0.00 | 0.00 | 0.00 | 55 | 1009.0 |
| 20260901040033 | 72 | 138 | 0.0 | 2.0 | 0.00 | 0.00 | 0.00 | 53 | 1009.0 |
| 20260901034535 | 73 | 132 | 3.0 | 8.0 | 0.00 | 0.00 | 0.00 | 52 | 1009.2 |
| 20260901033049 | 73 | 188 | 1.0 | 10.0 | 0.00 | 0.00 | 0.00 | 50 | 1009.4 |
| 20260901031533 | 73 | 179 | 4.0 | 9.0 | 0.00 | 0.00 | 0.00 | 49 | 1009.6 |
| 20260901030035 | 73 | 216 | 6.0 | 13.0 | 0.00 | 0.00 | 0.00 | 51 | 1009.3 |
| 20260901024530 | 72 | 240 | 3.0 | 7.0 | 0.00 | 0.00 | 0.00 | 53 | 1009.2 |
| 20260901023031 | 73 | 211 | 4.0 | 8.0 | 0.00 | 0.00 | 0.00 | 51 | 1008.5 |
| 20260901021536 | 73 | 170 | 5.0 | 8.0 | 0.00 | 0.00 | 0.00 | 50 | 1007.7 |
| 20260901020033 | 74 | 199 | 8.0 | 12.0 | 0.00 | 0.00 | 0.00 | 47 | 1007.5 |
| 20260901014528 | 75 | 136 | 3.0 | 6.0 | 0.00 | 0.00 | 0.00 | 47 | 1006.9 |
| 20260901013032 | 76 | 139 | 4.0 | 13.0 | 0.00 | 0.00 | 0.00 | 47 | 1006.7 |
| 20260901011528 | 77 | 110 | 4.0 | 14.0 | 0.00 | 0.00 | 0.00 | 45 | 1006.7 |
| 20260901010030 | 78 | 76 | 2.0 | 15.0 | 0.00 | 0.00 | 0.00 | 42 | 1006.1 |
| 20260901004526 | 79 | 94 | 2.0 | 5.0 | 0.00 | 0.00 | 0.00 | 39 | 1005.8 |
| 20260901003036 | 79 | 181 | 1.0 | 3.0 | 0.00 | 0.00 | 0.00 | 39 | 1005.8 |
| 20260901001524 | 80 | 181 | 1.0 | 4.0 | 0.00 | 0.00 | 0.00 | 38 | 1005.8 |
| 20260901000031 | 79 | 130 | 1.0 | 7.0 | 0.00 | 0.00 | 0.00 | 40 | 1006.1 |
| 20260831234522 | 79 | 178 | 2.0 | 6.0 | 0.00 | 0.00 | 0.00 | 40 | 1006.0 |
| 20260831233021 | 79 | 153 | 3.0 | 8.0 | 0.00 | 0.00 | 0.00 | 41 | 1006.0 |
| 20260831231519 | 80 | 164 | 5.0 | 11.0 | 0.00 | 0.00 | 0.00 | 40 | 1006.4 |
| 20260831230018 | 81 | 175 | 4.0 | 14.0 | 0.00 | 0.00 | 0.00 | 34 | 1006.5 |
| 20260831224514 | 83 | 161 | 6.0 | 12.0 | 0.00 | 0.00 | 0.00 | 31 | 1006.8 |
| 20260831223012 | 83 | 136 | 7.0 | 12.0 | 0.00 | 0.00 | 0.00 | 30 | 1007.1 |
| 20260831221511 | 84 | 122 | 5.0 | 9.0 | 0.00 | 0.00 | 0.00 | 28 | 1007.6 |
| 20260831220020 | 84 | 171 | 4.0 | 11.0 | 0.00 | 0.00 | 0.00 | 27 | 1007.7 |
| 20260831214509 | 84 | 78 | 3.0 | 7.0 | 0.00 | 0.00 | 0.00 | 27 | 1007.5 |
| 20260831213010 | 84 | 215 | 1.0 | 7.0 | 0.00 | 0.00 | 0.00 | 27 | 1007.6 |
| 20260831211507 | 84 | 261 | 0.0 | 4.0 | 0.00 | 0.00 | 0.00 | 26 | 1007.6 |
| 20260831210007 | 84 | 213 | 3.0 | 7.0 | 0.00 | 0.00 | 0.00 | 27 | 1007.7 |
| 20260831204507 | 84 | 281 | 3.0 | 6.0 | 0.00 | 0.00 | 0.00 | 28 | 1008.0 |
| 20260831203006 | 84 | 332 | 2.0 | 8.0 | 0.00 | 0.00 | 0.00 | 28 | 1008.1 |
| 20260831201505 | 84 | 299 | 6.0 | 12.0 | 0.00 | 0.00 | 0.00 | 27 | 1008.1 |
| 20260831200005 | 83 | 233 | 2.0 | 15.0 | 0.00 | 0.00 | 0.00 | 28 | 1008.1 |
| 20260831194507 | 84 | 308 | 7.0 | 15.0 | 0.00 | 0.00 | 0.00 | 27 | 1008.2 |
| 20260831193004 | 84 | 317 | 6.0 | 15.0 | 0.00 | 0.00 | 0.00 | 27 | 1008.2 |
| 20260831191504 | 84 | 280 | 6.0 | 16.0 | 0.00 | 0.00 | 0.00 | 27 | 1008.4 |
| 20260831190004 | 85 | 297 | 5.0 | 13.0 | 0.00 | 0.00 | 0.00 | 27 | 1008.4 |
| 20260831184503 | 84 | 291 | 7.0 | 14.0 | 0.00 | 0.00 | 0.00 | 29 | 1008.8 |
| 20260831183104 | 84 | 250 | 5.0 | 11.0 | 0.00 | 0.00 | 0.00 | 28 | 1009.0 |
| 20260831181602 | 83 | 261 | 5.0 | 11.0 | 0.00 | 0.00 | 0.00 | 30 | 1009.2 |
| 20260831180100 | 81 | 302 | 5.0 | 13.0 | 0.00 | 0.00 | 0.00 | 31 | 1009.6 |
| 20260831174555 | 81 | 307 | 3.0 | 11.0 | 0.00 | 0.00 | 0.00 | 31 | 1009.6 |
| 20260831173057 | 81 | 340 | 2.0 | 11.0 | 0.00 | 0.00 | 0.00 | 32 | 1009.7 |
| 20260831171551 | 81 | 321 | 4.0 | 10.0 | 0.00 | 0.00 | 0.00 | 32 | 1009.7 |
| 20260831170049 | 80 | 323 | 2.0 | 5.0 | 0.00 | 0.00 | 0.00 | 33 | 1009.7 |
| 20260831164545 | 79 | 300 | 2.0 | 8.0 | 0.00 | 0.00 | 0.00 | 35 | 1009.8 |
| 20260831163042 | 77 | 290 | 6.0 | 10.0 | 0.00 | 0.00 | 0.00 | 39 | 1009.8 |
| 20260831161541 | 74 | 250 | 0.0 | 6.0 | 0.00 | 0.00 | 0.00 | 46 | 1010.0 |
| 20260831160035 | 72 | 253 | 2.0 | 5.0 | 0.00 | 0.00 | 0.00 | 47 | 1010.2 |
| 20260831154532 | 71 | 253 | 2.0 | 5.0 | 0.00 | 0.00 | 0.00 | 45 | 1010.3 |
| 20260831153029 | 69 | 203 | 2.0 | 6.0 | 0.00 | 0.00 | 0.00 | 51 | 1010.4 |
| 20260831151530 | 68 | 190 | 1.0 | 4.0 | 0.00 | 0.00 | 0.00 | 53 | 1010.2 |
| 20260831150028 | 67 | 241 | 0.0 | 6.0 | 0.00 | 0.00 | 0.00 | 56 | 1010.1 |
| 20260831144527 | 66 | 356 | 2.0 | 6.0 | 0.00 | 0.00 | 0.00 | 56 | 1009.9 |
| 20260831143027 | 66 | 213 | 0.0 | 5.0 | 0.00 | 0.00 | 0.00 | 57 | 1010.4 |
| 20260831141526 | 65 | 261 | 1.0 | 4.0 | 0.00 | 0.00 | 0.00 | 58 | 1010.3 |
| 20260831140027 | 65 | 317 | 1.0 | 4.0 | 0.00 | 0.00 | 0.00 | 60 | 1010.1 |
| 20260831134523 | 64 | 12 | 0.0 | 2.0 | 0.00 | 0.00 | 0.00 | 60 | 1010.2 |
| 20260831133026 | 63 | 12 | 0.0 | 4.0 | 0.00 | 0.00 | 0.00 | 61 | 1010.2 |
| 20260831131518 | 63 | 7 | 2.0 | 5.0 | 0.00 | 0.00 | 0.00 | 61 | 1010.0 |
| 20260831130018 | 63 | 8 | 0.0 | 5.0 | 0.00 | 0.00 | 0.00 | 62 | 1009.6 |
| 20260831124519 | 63 | 324 | 2.0 | 5.0 | 0.00 | 0.00 | 0.00 | 63 | 1009.4 |
| 20260831123015 | 63 | 309 | 0.0 | 4.0 | 0.00 | 0.00 | 0.00 | 63 | 1009.3 |
| 20260831121515 | 63 | 298 | 0.0 | 2.0 | 0.00 | 0.00 | 0.00 | 64 | 1009.1 |
| 20260831120014 | 63 | 257 | 0.0 | 0.0 | 0.00 | 0.00 | 0.00 | 65 | 1009.0 |
| 20260831114514 | 63 | 180 | 0.0 | 0.0 | 0.00 | 0.00 | 0.00 | 65 | 1008.8 |
| 20260831113013 | 63 | 180 | 0.0 | 0.0 | 0.00 | 0.00 | 0.00 | 65 | 1008.7 |
| 20260831111511 | 63 | 180 | 0.0 | 0.0 | 0.00 | 0.00 | 0.00 | 66 | 1008.7 |
| 20260831110011 | 62 | 180 | 0.0 | 0.0 | 0.00 | 0.00 | 0.00 | 66 | 1008.4 |
| 20260831104517 | 63 | 180 | 0.0 | 0.0 | 0.00 | 0.00 | 0.00 | 66 | 1008.5 |
| 20260831103009 | 63 | 180 | 0.0 | 0.0 | 0.00 | 0.00 | 0.00 | 67 | 1008.7 |
| 20260831101513 | 63 | 180 | 0.0 | 0.0 | 0.00 | 0.00 | 0.00 | 67 | 1008.4 |
| 20260831100005 | 64 | 180 | 0.0 | 1.0 | 0.00 | 0.00 | 0.00 | 65 | 1008.5 |
| 20260831094504 | 64 | 228 | 1.0 | 4.0 | 0.00 | 0.00 | 0.00 | 64 | 1008.4 |
| 20260831093002 | 64 | 223 | 0.0 | 0.0 | 0.00 | 0.00 | 0.00 | 64 | 1008.0 |
| 20260831091505 | 64 | 223 | 0.0 | 0.0 | 0.00 | 0.00 | 0.00 | 64 | 1008.1 |
| 20260831090101 | 65 | 223 | 0.0 | 1.0 | 0.00 | 0.00 | 0.00 | 63 | 1007.9 |
| 20260831084605 | 65 | 295 | 1.0 | 5.0 | 0.00 | 0.00 | 0.00 | 63 | 1007.8 |
| 20260831083100 | 66 | 298 | 0.0 | 4.0 | 0.00 | 0.00 | 0.00 | 61 | 1007.7 |
| 20260831081602 | 66 | 298 | 0.0 | 0.0 | 0.00 | 0.00 | 0.00 | 60 | 1007.8 |
| 20260831080125 | 67 | 298 | 0.0 | 5.0 | 0.00 | 0.00 | 0.00 | 60 | 1007.8 |
| 20260831074551 | 67 | 315 | 2.0 | 7.0 | 0.00 | 0.00 | 0.00 | 60 | 1008.2 |
| 20260831073110 | 67 | 303 | 5.0 | 7.0 | 0.00 | 0.00 | 0.00 | 59 | 1008.7 |
| 20260831071551 | 68 | 257 | 1.0 | 6.0 | 0.00 | 0.00 | 0.00 | 59 | 1009.2 |
| 20260831070041 | 68 | 324 | 0.0 | 5.0 | 0.00 | 0.00 | 0.00 | 58 | 1009.6 |
| 20260831064542 | 68 | 223 | 1.0 | 8.0 | 0.00 | 0.00 | 0.00 | 56 | 1010.0 |